Regional Weather Roundup
Issued by NWS

Home | Current Version | Previous Version | Graphics & Text | Print | Product List | Glossary On
Versions: 1 2 3 4 5 6 7 8 9 10 11 12 13 14 15 16 17 18 19 20 21 22 23 24 25 26 27 28 29 30 31 32 33 34 35 36 37 38 39 40 41 42 43 44 45 46 47 48 49 50
000
ASUS43 KIND 281959
RWRIN

WEATHER ROUNDUP FOR INDIANA
NATIONAL WEATHER SERVICE INDIANAPOLIS IN
400 PM EDT THU MAY 28 2015

NOTE: "FAIR" INDICATES FEW OR NO CLOUDS BELOW 12,000 FEET WITH NO
SIGNIFICANT WEATHER AND/OR OBSTRUCTIONS TO VISIBILITY.

* - STATION DOES NOT REPORT WEATHER SUCH AS PRECIPITATION OR FOG.

+ - STATION NOT QUALITY CONTROLLED BY THE NATIONAL WEATHER SERVICE.
    USE DATA WITH CAUTION...ESPECIALLY DEWPOINT AND RELATIVE
    HUMIDITY OBSERVATIONS.

INZ001>003-010>013-019-020-282100-
NORTHWEST INDIANA

CITY           SKY/WX    TMP DP  RH WIND       PRES   REMARKS
GARY /AIRPORT/ MOSUNNY   81  57  44 NE9       30.16F
MONTICELLO +   SUNNY     81  59  47 SE5       30.15F
RENSSELAER +   SUNNY     81  54  39 SE13      30.16S

$$

LMZ046-743>745-282100-
SOUTHERN LAKE MICHIGAN

STATION/POSITION TIME  TEMP    WIND        PRES    WAVE
                       AIR SEA DIR/SP/G            HT
                 (UTC) (F)     (DEG/KT/KT) (MB)    (FT)
BURNS HARBOR     1900   69      10/  2/  6 1021.7F
MICHIGAN CITY    1900   78     110/  9/ 11   N/A
5NW MICH CITY    1900   62 57   40/  6/  8   N/A     0

$$

INZ004-005-014>016-021>024-282100-
NORTH CENTRAL INDIANA

CITY           SKY/WX    TMP DP  RH WIND       PRES   REMARKS
ELKHART        SUNNY     81  52  36 E9        30.19F
GOSHEN         SUNNY     81  57  43 S12       30.18F
SOUTH BEND     SUNNY     82  53  36 SE14G21   30.17F
WARSAW +       SUNNY     79  59  50 E10       30.19F

$$

INZ006>009-017-018-025>027-282100-
NORTHEAST INDIANA

CITY           SKY/WX    TMP DP  RH WIND       PRES   REMARKS
ANGOLA *+      SUNNY     81  57  44 SE13      30.20F
FORT WAYNE     MOSUNNY   80  59  48 E14G21    30.19F

$$

INZ028-029-035-036-043>045-051>053-282100-
WEST CENTRAL INDIANA

CITY           SKY/WX    TMP DP  RH WIND       PRES   REMARKS
CRAWFORDSVL +  SUNNY     81  47  30 SE6       30.15F
GREENCASTLE +  MOSUNNY   82  55  39 S7        30.16S
LAFAYETTE      SUNNY     82  56  40 E14       30.14F
TERRE HAUTE    SUNNY     85  58  39 MISG      30.14F

$$

INZ030>032-037>040-046>048-054>057-064-065-282100-
CENTRAL INDIANA

CITY           SKY/WX    TMP DP  RH WIND       PRES   REMARKS
ANDERSON       MOSUNNY   82  52  34 SE6       30.18F
COLUMBUS       MOSUNNY   81  54  39 SE5       30.17F
GREENWOOD *+   SUNNY     82  54  36 SW9       30.17F
INDIANAPOLIS   MOSUNNY   83  58  42 S9        30.14F
-EAGLE CREEK   MOSUNNY   81  57  43 S8        30.15F
KOKOMO *+      MOSUNNY   82  57  42 SE13      30.16S
MT COMFORT *+  SUNNY     86  41  20 SE10      30.17F
SHELBYVILLE    MOSUNNY   85  61  44 S12       30.16F

$$

INZ033-034-041-042-049-050-058-059-282100-
EAST CENTRAL INDIANA

CITY           SKY/WX    TMP DP  RH WIND       PRES   REMARKS
MUNCIE         SUNNY     82  56  40 SE7       30.17F

$$

INZ060-061-067>069-081>083-085>088-282100-
SOUTHWEST INDIANA

CITY           SKY/WX    TMP DP  RH WIND       PRES   REMARKS
EVANSVILLE     CLOUDY    82  65  56 S7        30.14F
HUNTINGBURG *+ PTSUNNY   81  66  61 SE5       30.16S

$$

INZ062-063-066-070>080-084-089>092-282100-
SOUTH CENTRAL AND SOUTHEAST INDIANA

CITY           SKY/WX    TMP DP  RH WIND       PRES   REMARKS
BLOOMINGTON    SUNNY     84  62  47 S8        30.16F
MADISON *+     PTSUNNY   81  63  54 SE5       30.21S
SEYMOUR +      MOSUNNY   84  63  48 S9        30.17F

$$




USA.gov is the U.S. government's official web portal to all federal, state and local government web resources and services.